Time,TemperatureF,DewpointF,PressureIn,WindDirection,WindDirectionDegrees,WindSpeedMPH,WindSpeedGustMPH,Humidity,HourlyPrecipIn,Conditions,Clouds,dailyrainin,SoftwareType,DateUTC
2013-05-06 00:04:00,52.7,46.0,30.08,ENE,60,0.0,0.0,78,0.00,,,0.00,Wunderground v.1.15,2013-05-06 05:04:00,
2013-05-06 00:10:00,52.5,46.2,30.08,ENE,60,0.0,0.0,79,0.00,,,0.00,Wunderground v.1.15,2013-05-06 05:10:00,
2013-05-06 00:15:00,52.4,46.1,30.08,ENE,60,0.0,0.0,79,0.00,,,0.00,Wunderground v.1.15,2013-05-06 05:15:00,
2013-05-06 00:20:00,52.2,45.9,30.09,ENE,60,0.0,0.0,79,0.00,,,0.00,Wunderground v.1.15,2013-05-06 05:20:00,
2013-05-06 00:26:00,52.1,46.1,30.09,ENE,60,0.0,0.0,80,0.00,,,0.00,Wunderground v.1.15,2013-05-06 05:26:00,
2013-05-06 00:32:00,51.8,45.8,30.09,ENE,60,0.0,0.0,80,0.00,,,0.00,Wunderground v.1.15,2013-05-06 05:32:00,
2013-05-06 00:38:00,51.6,45.6,30.09,ENE,60,0.0,0.0,80,0.00,,,0.00,Wunderground v.1.15,2013-05-06 05:38:00,
2013-05-06 00:44:00,51.4,45.4,30.09,ENE,60,0.0,0.0,80,0.00,,,0.00,Wunderground v.1.15,2013-05-06 05:44:00,
2013-05-06 00:50:00,51.2,45.2,30.09,ENE,60,0.0,0.0,80,0.00,,,0.00,Wunderground v.1.15,2013-05-06 05:50:00,
2013-05-06 00:55:00,51.0,45.4,30.09,ENE,60,0.0,0.0,81,0.00,,,0.00,Wunderground v.1.15,2013-05-06 05:55:00,
2013-05-06 01:00:00,50.9,45.3,30.09,ENE,60,0.0,0.0,81,0.00,,,0.00,Wunderground v.1.15,2013-05-06 06:00:00,
2013-05-06 01:06:00,50.7,45.4,30.09,ENE,60,0.0,0.0,82,0.00,,,0.00,Wunderground v.1.15,2013-05-06 06:06:00,
2013-05-06 01:12:00,50.8,45.8,30.09,ENE,60,0.0,0.0,83,0.00,,,0.00,Wunderground v.1.15,2013-05-06 06:12:00,
2013-05-06 01:17:00,50.9,45.9,30.09,ENE,59,0.0,0.0,83,0.00,,,0.00,Wunderground v.1.15,2013-05-06 06:17:00,
2013-05-06 01:23:00,50.9,46.2,30.08,ENE,57,0.0,2.0,84,0.00,,,0.00,Wunderground v.1.15,2013-05-06 06:23:00,
2013-05-06 01:29:00,51.0,46.6,30.08,ENE,58,0.0,2.0,85,0.00,,,0.00,Wunderground v.1.15,2013-05-06 06:29:00,
2013-05-06 01:34:00,51.0,46.6,30.08,ENE,58,0.0,0.0,85,0.00,,,0.00,Wunderground v.1.15,2013-05-06 06:34:00,
2013-05-06 01:40:00,51.0,46.6,30.08,ENE,58,0.0,0.0,85,0.00,,,0.00,Wunderground v.1.15,2013-05-06 06:40:00,
2013-05-06 01:46:00,50.9,47.0,30.08,ENE,57,0.0,0.0,85,0.00,,,0.00,weatherlink.com 1.10,2013-05-06 06:46:00,
2013-05-06 01:51:00,50.9,46.9,30.08,ENE,57,0.0,0.0,86,0.00,,,0.00,Wunderground v.1.15,2013-05-06 06:51:00,
2013-05-06 01:57:00,50.8,46.8,30.08,ENE,58,0.0,0.0,86,0.00,,,0.00,Wunderground v.1.15,2013-05-06 06:57:00,
2013-05-06 02:02:00,50.9,47.0,30.08,ENE,57,0.0,0.0,87,0.00,,,0.00,weatherlink.com 1.10,2013-05-06 07:02:00,
2013-05-06 02:17:00,50.6,47.0,30.08,ENE,58,0.0,0.0,87,0.00,,,0.00,weatherlink.com 1.10,2013-05-06 07:17:00,
2013-05-06 02:32:00,50.1,46.0,30.08,ENE,58,0.0,2.0,87,0.00,,,0.00,weatherlink.com 1.10,2013-05-06 07:32:00,
2013-05-06 02:47:00,50.0,47.0,30.08,ENE,57,0.0,1.0,88,0.00,,,0.00,weatherlink.com 1.10,2013-05-06 07:47:00,
2013-05-06 03:02:00,50.1,47.0,30.08,ENE,57,1.0,2.0,89,0.00,,,0.00,weatherlink.com 1.10,2013-05-06 08:02:00,
2013-05-06 03:17:00,50.4,47.0,30.07,WNW,292,0.0,2.0,88,0.00,,,0.00,weatherlink.com 1.10,2013-05-06 08:17:00,
2013-05-06 03:32:00,50.4,47.0,30.07,WNW,292,0.0,0.0,88,0.00,,,0.00,weatherlink.com 1.10,2013-05-06 08:32:00,
2013-05-06 03:47:00,50.3,47.0,30.07,WNW,292,0.0,0.0,88,0.00,,,0.00,weatherlink.com 1.10,2013-05-06 08:47:00,
2013-05-06 04:02:00,50.0,47.0,30.07,WNW,292,0.0,0.0,88,0.00,,,0.00,weatherlink.com 1.10,2013-05-06 09:02:00,
2013-05-06 04:17:00,49.9,47.0,30.07,West,276,0.0,0.0,88,0.00,,,0.00,weatherlink.com 1.10,2013-05-06 09:17:00,
2013-05-06 04:32:00,49.9,47.0,30.07,WSW,257,1.0,2.0,89,0.00,,,0.00,weatherlink.com 1.10,2013-05-06 09:32:00,
2013-05-06 04:47:00,50.4,47.0,30.07,West,272,0.0,4.0,89,0.00,,,0.00,weatherlink.com 1.10,2013-05-06 09:47:00,
2013-05-06 05:02:00,50.3,47.0,30.08,West,272,0.0,2.0,88,0.00,,,0.00,weatherlink.com 1.10,2013-05-06 10:02:00,
2013-05-06 05:17:00,49.9,47.0,30.08,West,272,0.0,0.0,88,0.00,,,0.00,weatherlink.com 1.10,2013-05-06 10:17:00,
2013-05-06 05:32:00,49.7,47.0,30.08,West,272,0.0,0.0,89,0.00,,,0.00,weatherlink.com 1.10,2013-05-06 10:32:00,
2013-05-06 05:41:00,49.5,46.1,30.08,West,272,0.0,0.0,88,0.00,,,0.00,Wunderground v.1.15,2013-05-06 10:41:00,
2013-05-06 05:46:00,49.4,46.0,30.08,West,272,0.0,0.0,88,0.00,,,0.00,weatherlink.com 1.10,2013-05-06 10:46:00,
2013-05-06 05:53:00,49.4,46.3,30.08,West,272,0.0,0.0,89,0.00,,,0.00,Wunderground v.1.15,2013-05-06 10:53:00,
2013-05-06 05:58:00,49.5,46.4,30.08,West,272,0.0,0.0,89,0.00,,,0.00,Wunderground v.1.15,2013-05-06 10:58:00,
2013-05-06 06:03:00,49.6,47.0,30.09,West,272,0.0,0.0,90,0.00,,,0.00,weatherlink.com 1.10,2013-05-06 11:03:00,
2013-05-06 06:08:00,49.7,46.6,30.09,West,272,0.0,0.0,89,0.00,,,0.00,Wunderground v.1.15,2013-05-06 11:08:00,
2013-05-06 06:14:00,49.6,46.5,30.09,West,272,0.0,0.0,89,0.00,,,0.00,Wunderground v.1.15,2013-05-06 11:14:00,
2013-05-06 06:20:00,49.5,46.4,30.09,North,5,0.0,0.0,89,0.00,,,0.00,Wunderground v.1.15,2013-05-06 11:20:00,
2013-05-06 06:26:00,49.6,46.8,30.09,North,351,0.0,3.0,90,0.00,,,0.00,Wunderground v.1.15,2013-05-06 11:26:00,
2013-05-06 06:31:00,49.5,46.7,30.09,North,351,0.0,0.0,90,0.00,,,0.00,Wunderground v.1.15,2013-05-06 11:31:00,
2013-05-06 06:37:00,49.4,46.6,30.09,North,351,0.0,0.0,90,0.00,,,0.00,Wunderground v.1.15,2013-05-06 11:37:00,
2013-05-06 06:43:00,49.4,46.6,30.10,North,351,0.0,0.0,90,0.00,,,0.00,Wunderground v.1.15,2013-05-06 11:43:00,
2013-05-06 06:49:00,49.3,46.5,30.10,North,351,0.0,0.0,90,0.00,,,0.00,Wunderground v.1.15,2013-05-06 11:49:00,
2013-05-06 06:55:00,49.2,46.4,30.10,North,351,0.0,0.0,90,0.00,,,0.00,Wunderground v.1.15,2013-05-06 11:55:00,
2013-05-06 07:00:00,49.1,46.3,30.10,North,351,0.0,0.0,90,0.00,,,0.00,Wunderground v.1.15,2013-05-06 12:00:00,
2013-05-06 07:06:00,49.0,46.2,30.11,North,351,0.0,0.0,90,0.00,,,0.00,Wunderground v.1.15,2013-05-06 12:06:00,
2013-05-06 07:11:00,49.0,46.5,30.11,North,351,0.0,0.0,91,0.00,,,0.00,Wunderground v.1.15,2013-05-06 12:11:00,
2013-05-06 07:17:00,49.0,46.0,30.11,North,351,0.0,0.0,90,0.00,,,0.00,weatherlink.com 1.10,2013-05-06 12:17:00,
2013-05-06 07:22:00,49.2,46.7,30.10,North,351,0.0,1.0,91,0.00,,,0.00,Wunderground v.1.15,2013-05-06 12:22:00,
2013-05-06 07:28:00,49.3,46.8,30.11,North,351,0.0,1.0,91,0.00,,,0.00,Wunderground v.1.15,2013-05-06 12:28:00,
2013-05-06 07:33:00,49.6,47.1,30.11,North,351,1.0,1.0,91,0.00,,,0.00,Wunderground v.1.15,2013-05-06 12:33:00,
2013-05-06 07:39:00,50.0,47.8,30.11,NNE,30,1.0,3.0,92,0.00,,,0.00,Wunderground v.1.15,2013-05-06 12:39:00,
2013-05-06 07:45:00,50.8,48.3,30.11,NNE,30,2.0,3.0,91,0.00,,,0.00,Wunderground v.1.15,2013-05-06 12:45:00,
2013-05-06 07:51:00,51.5,48.7,30.11,NNW,340,2.0,3.0,90,0.00,,,0.00,Wunderground v.1.15,2013-05-06 12:51:00,
2013-05-06 07:57:00,52.0,48.9,30.11,North,355,2.0,3.0,89,0.00,,,0.00,Wunderground v.1.15,2013-05-06 12:57:00,
2013-05-06 08:02:00,52.4,48.9,30.11,NNE,19,2.0,2.0,88,0.00,,,0.00,Wunderground v.1.15,2013-05-06 13:02:00,
2013-05-06 08:08:00,53.3,49.2,30.11,NNE,17,2.0,3.0,86,0.00,,,0.00,Wunderground v.1.15,2013-05-06 13:08:00,
2013-05-06 08:13:00,54.1,49.4,30.11,NNE,23,2.0,5.0,84,0.00,,,0.00,Wunderground v.1.15,2013-05-06 13:13:00,
2013-05-06 08:19:00,55.0,49.6,30.11,North,11,3.0,6.0,82,0.00,,,0.00,Wunderground v.1.15,2013-05-06 13:19:00,
2013-05-06 08:25:00,55.5,49.4,30.11,NE,45,3.0,6.0,80,0.00,,,0.00,Wunderground v.1.15,2013-05-06 13:25:00,
2013-05-06 08:30:00,55.9,49.8,30.12,NNE,28,3.0,4.0,80,0.00,,,0.00,Wunderground v.1.15,2013-05-06 13:30:00,
2013-05-06 08:36:00,56.8,50.0,30.12,NNE,26,3.0,6.0,78,0.00,,,0.00,Wunderground v.1.15,2013-05-06 13:36:00,
2013-05-06 08:42:00,57.8,50.6,30.12,NNW,336,3.0,3.0,77,0.00,,,0.00,Wunderground v.1.15,2013-05-06 13:42:00,
2013-05-06 08:47:00,58.4,50.5,30.12,North,351,3.0,4.0,75,0.00,,,0.00,Wunderground v.1.15,2013-05-06 13:47:00,
2013-05-06 08:53:00,58.8,50.9,30.12,NNW,346,3.0,3.0,75,0.00,,,0.00,Wunderground v.1.15,2013-05-06 13:53:00,
2013-05-06 08:59:00,59.6,51.3,30.12,NNE,31,3.0,5.0,74,0.00,,,0.00,Wunderground v.1.15,2013-05-06 13:59:00,
2013-05-06 09:05:00,59.9,51.2,30.12,NW,321,3.0,7.0,73,0.00,,,0.00,Wunderground v.1.15,2013-05-06 14:05:00,
2013-05-06 09:11:00,60.3,50.9,30.12,WNW,296,4.0,6.0,71,0.00,,,0.00,Wunderground v.1.15,2013-05-06 14:11:00,
2013-05-06 09:16:00,60.7,51.2,30.12,NNE,33,4.0,6.0,71,0.00,,,0.00,Wunderground v.1.15,2013-05-06 14:16:00,
2013-05-06 09:22:00,61.4,51.5,30.12,NNW,340,3.0,4.0,70,0.00,,,0.00,Wunderground v.1.15,2013-05-06 14:22:00,
2013-05-06 09:27:00,61.9,51.6,30.12,NW,326,3.0,4.0,69,0.00,,,0.00,Wunderground v.1.15,2013-05-06 14:27:00,
2013-05-06 09:33:00,62.6,52.0,30.12,NNW,340,6.0,8.0,68,0.00,,,0.00,weatherlink.com 1.10,2013-05-06 14:33:00,
2013-05-06 09:39:00,63.2,52.1,30.12,NW,314,4.0,6.0,67,0.00,,,0.00,Wunderground v.1.15,2013-05-06 14:39:00,
2013-05-06 09:45:00,63.6,52.0,30.12,WNW,301,4.0,8.0,66,0.00,,,0.00,Wunderground v.1.15,2013-05-06 14:45:00,
2013-05-06 09:51:00,64.1,51.7,30.11,North,350,4.0,4.0,64,0.00,,,0.00,Wunderground v.1.15,2013-05-06 14:51:00,
2013-05-06 09:57:00,64.1,52.1,30.12,North,5,4.0,6.0,65,0.00,,,0.00,Wunderground v.1.15,2013-05-06 14:57:00,
2013-05-06 10:02:00,63.9,51.9,30.11,NNW,336,4.0,8.0,65,0.00,,,0.00,Wunderground v.1.15,2013-05-06 15:02:00,
2013-05-06 10:07:00,63.9,51.9,30.11,North,5,4.0,8.0,65,0.00,,,0.00,Wunderground v.1.15,2013-05-06 15:07:00,
2013-05-06 10:12:00,64.0,52.0,30.11,NNW,335,4.0,5.0,65,0.00,,,0.00,Wunderground v.1.15,2013-05-06 15:12:00,
2013-05-06 10:18:00,64.2,52.2,30.11,WNW,300,5.0,8.0,65,0.00,,,0.00,Wunderground v.1.15,2013-05-06 15:18:00,
2013-05-06 10:23:00,64.7,52.2,30.12,North,11,5.0,7.0,64,0.00,,,0.00,Wunderground v.1.15,2013-05-06 15:23:00,
2013-05-06 10:28:00,65.0,52.9,30.11,North,5,4.0,7.0,65,0.00,,,0.00,Wunderground v.1.15,2013-05-06 15:28:00,
2013-05-06 10:33:00,65.4,52.0,30.11,NNE,27,4.0,10.0,62,0.00,,,0.00,Wunderground v.1.15,2013-05-06 15:33:00,
2013-05-06 10:39:00,65.4,52.5,30.11,North,355,5.0,10.0,63,0.00,,,0.00,Wunderground v.1.15,2013-05-06 15:39:00,
2013-05-06 10:45:00,66.0,53.5,30.11,NNW,338,5.0,7.0,64,0.00,,,0.00,Wunderground v.1.15,2013-05-06 15:45:00,
2013-05-06 10:50:00,66.2,52.8,30.11,NNE,16,4.0,6.0,62,0.00,,,0.00,Wunderground v.1.15,2013-05-06 15:50:00,
2013-05-06 10:56:00,66.8,53.8,30.11,NW,306,4.0,9.0,63,0.00,,,0.00,Wunderground v.1.15,2013-05-06 15:56:00,
2013-05-06 11:01:00,67.0,53.1,30.11,NNW,336,4.0,4.0,61,0.00,,,0.00,Wunderground v.1.15,2013-05-06 16:01:00,
2013-05-06 11:06:00,67.0,52.7,30.11,NW,309,5.0,7.0,60,0.00,,,0.00,Wunderground v.1.15,2013-05-06 16:06:00,
2013-05-06 11:11:00,67.5,53.1,30.12,NNW,331,4.0,5.0,60,0.00,,,0.00,Wunderground v.1.15,2013-05-06 16:11:00,
2013-05-06 11:16:00,68.1,53.2,30.12,NW,317,4.0,8.0,59,0.00,,,0.00,Wunderground v.1.15,2013-05-06 16:16:00,
2013-05-06 11:22:00,68.0,53.1,30.12,NNE,32,4.0,7.0,59,0.00,,,0.00,Wunderground v.1.15,2013-05-06 16:22:00,
2013-05-06 11:28:00,68.5,53.6,30.11,NNW,330,4.0,8.0,59,0.00,,,0.00,Wunderground v.1.15,2013-05-06 16:28:00,
2013-05-06 11:34:00,68.3,53.4,30.12,NNE,31,3.0,5.0,59,0.00,,,0.00,Wunderground v.1.15,2013-05-06 16:34:00,
2013-05-06 11:40:00,68.5,53.1,30.12,WNW,284,4.0,4.0,58,0.00,,,0.00,Wunderground v.1.15,2013-05-06 16:40:00,
2013-05-06 11:44:00,69.3,53.4,30.11,NNW,344,3.0,5.0,57,0.00,,,0.00,Wunderground v.1.15,2013-05-06 16:44:00,
2013-05-06 11:49:00,69.6,53.2,30.11,NNW,348,2.0,3.0,56,0.00,,,0.00,Wunderground v.1.15,2013-05-06 16:49:00,
2013-05-06 11:56:00,69.7,53.3,30.11,NW,315,3.0,8.0,56,0.00,,,0.00,Wunderground v.1.15,2013-05-06 16:56:00,
2013-05-06 12:01:00,70.0,53.6,30.11,NNE,23,4.0,4.0,56,0.00,,,0.00,Wunderground v.1.15,2013-05-06 17:01:00,
2013-05-06 12:07:00,69.7,54.3,30.11,NNW,339,2.0,4.0,58,0.00,,,0.00,Wunderground v.1.15,2013-05-06 17:07:00,
2013-05-06 12:13:00,69.5,53.6,30.11,WNW,294,2.0,3.0,57,0.00,,,0.00,Wunderground v.1.15,2013-05-06 17:13:00,
2013-05-06 12:18:00,70.4,55.4,30.10,NW,307,1.0,3.0,59,0.00,,,0.00,Wunderground v.1.15,2013-05-06 17:18:00,
2013-05-06 12:24:00,70.3,53.9,30.10,NNE,17,2.0,4.0,56,0.00,,,0.00,Wunderground v.1.15,2013-05-06 17:24:00,
2013-05-06 12:30:00,70.1,55.1,30.10,WSW,253,2.0,2.0,59,0.00,,,0.00,Wunderground v.1.15,2013-05-06 17:30:00,
2013-05-06 12:36:00,70.8,53.3,30.09,North,355,1.0,5.0,54,0.00,,,0.00,Wunderground v.1.15,2013-05-06 17:36:00,
2013-05-06 12:41:00,71.4,53.9,30.09,North,9,2.0,3.0,54,0.00,,,0.00,Wunderground v.1.15,2013-05-06 17:41:00,
2013-05-06 12:47:00,72.2,54.6,30.08,North,10,2.0,4.0,54,0.00,,,0.00,Wunderground v.1.15,2013-05-06 17:47:00,
2013-05-06 12:52:00,72.5,54.9,30.09,North,360,3.0,5.0,54,0.00,,,0.00,Wunderground v.1.15,2013-05-06 17:52:00,
2013-05-06 12:57:00,72.4,55.3,30.08,North,5,3.0,9.0,55,0.00,,,0.00,Wunderground v.1.15,2013-05-06 17:57:00,
2013-05-06 13:03:00,72.2,53.1,30.08,North,9,3.0,7.0,51,0.00,,,0.00,Wunderground v.1.15,2013-05-06 18:03:00,
2013-05-06 13:08:00,71.7,55.2,30.08,WNW,300,4.0,10.0,56,0.00,,,0.00,Wunderground v.1.15,2013-05-06 18:08:00,
2013-05-06 13:13:00,72.4,54.3,30.08,North,360,4.0,7.0,53,0.00,,,0.00,Wunderground v.1.15,2013-05-06 18:13:00,
2013-05-06 13:19:00,72.3,54.0,30.07,North,355,2.0,8.0,53,0.00,,,0.00,weatherlink.com 1.10,2013-05-06 18:19:00,
2013-05-06 13:34:00,72.9,53.0,30.07,NNE,31,7.0,13.0,50,0.00,,,0.00,weatherlink.com 1.10,2013-05-06 18:34:00,
2013-05-06 13:49:00,73.7,53.0,30.06,WNW,298,7.0,11.0,48,0.00,,,0.00,weatherlink.com 1.10,2013-05-06 18:49:00,
2013-05-06 14:01:00,73.9,53.5,30.06,WNW,284,4.0,7.0,49,0.00,,,0.00,Wunderground v.1.15,2013-05-06 19:01:00,
2013-05-06 14:06:00,74.3,55.0,30.06,NNW,328,4.0,7.0,51,0.00,,,0.00,Wunderground v.1.15,2013-05-06 19:06:00,
2013-05-06 14:11:00,73.9,53.5,30.06,North,360,4.0,7.0,49,0.00,,,0.00,Wunderground v.1.15,2013-05-06 19:11:00,
2013-05-06 14:17:00,74.0,54.2,30.06,NW,309,4.0,8.0,50,0.00,,,0.00,Wunderground v.1.15,2013-05-06 19:17:00,
2013-05-06 14:23:00,74.7,54.3,30.05,NNW,328,5.0,6.0,49,0.00,,,0.00,Wunderground v.1.15,2013-05-06 19:23:00,
2013-05-06 14:29:00,74.2,53.2,30.06,NW,321,5.0,7.0,48,0.00,,,0.00,Wunderground v.1.15,2013-05-06 19:29:00,
2013-05-06 14:34:00,74.6,53.6,30.05,NNW,344,4.0,4.0,48,0.00,,,0.00,Wunderground v.1.15,2013-05-06 19:34:00,
2013-05-06 14:40:00,75.0,54.5,30.05,NNE,19,3.0,3.0,49,0.00,,,0.00,Wunderground v.1.15,2013-05-06 19:40:00,
2013-05-06 14:46:00,75.1,52.9,30.04,NW,314,4.0,7.0,46,0.00,,,0.00,Wunderground v.1.15,2013-05-06 19:46:00,
2013-05-06 14:52:00,75.6,55.1,30.03,NNW,327,3.0,7.0,49,0.00,,,0.00,Wunderground v.1.15,2013-05-06 19:52:00,
2013-05-06 14:58:00,75.6,54.5,30.03,North,355,2.0,7.0,48,0.00,,,0.00,Wunderground v.1.15,2013-05-06 19:58:00,
2013-05-06 15:04:00,75.6,53.9,30.03,NW,314,4.0,9.0,47,0.00,,,0.00,Wunderground v.1.15,2013-05-06 20:04:00,
2013-05-06 15:09:00,75.5,53.9,30.03,WSW,257,4.0,4.0,47,0.00,,,0.00,Wunderground v.1.15,2013-05-06 20:09:00,
2013-05-06 15:15:00,75.7,53.4,30.03,NW,312,4.0,7.0,46,0.00,,,0.00,Wunderground v.1.15,2013-05-06 20:15:00,
2013-05-06 15:20:00,76.0,53.7,30.02,NW,306,5.0,5.0,46,0.00,,,0.00,Wunderground v.1.15,2013-05-06 20:20:00,
2013-05-06 15:26:00,76.4,54.7,30.02,North,9,3.0,7.0,47,0.00,,,0.00,Wunderground v.1.15,2013-05-06 20:26:00,
2013-05-06 15:31:00,76.0,53.1,30.01,NNW,344,3.0,7.0,45,0.00,,,0.00,Wunderground v.1.15,2013-05-06 20:31:00,
2013-05-06 15:37:00,76.0,53.1,30.01,NNE,19,3.0,7.0,45,0.00,,,0.00,Wunderground v.1.15,2013-05-06 20:37:00,
2013-05-06 15:43:00,76.3,53.4,30.01,NNE,32,3.0,3.0,45,0.00,,,0.00,Wunderground v.1.15,2013-05-06 20:43:00,
2013-05-06 15:48:00,76.2,53.3,30.01,NE,53,2.0,3.0,45,0.00,,,0.00,Wunderground v.1.15,2013-05-06 20:48:00,
2013-05-06 15:54:00,76.0,51.9,30.01,North,5,3.0,8.0,43,0.00,,,0.00,Wunderground v.1.15,2013-05-06 20:54:00,
2013-05-06 16:00:00,75.8,51.7,30.00,NW,318,3.0,4.0,43,0.00,,,0.00,Wunderground v.1.15,2013-05-06 21:00:00,
2013-05-06 16:05:00,76.6,53.0,30.00,NNE,24,1.0,6.0,44,0.00,,,0.00,weatherlink.com 1.10,2013-05-06 21:05:00,
2013-05-06 16:11:00,76.8,53.2,30.00,North,355,2.0,2.0,44,0.00,,,0.00,Wunderground v.1.15,2013-05-06 21:11:00,
2013-05-06 16:16:00,76.7,52.5,30.00,NW,325,2.0,4.0,43,0.00,,,0.00,Wunderground v.1.15,2013-05-06 21:16:00,
2013-05-06 16:21:00,76.7,52.5,29.99,NNE,27,2.0,5.0,43,0.00,,,0.00,Wunderground v.1.15,2013-05-06 21:21:00,
2013-05-06 16:27:00,76.8,52.6,29.99,WNW,300,3.0,5.0,43,0.00,,,0.00,Wunderground v.1.15,2013-05-06 21:27:00,
2013-05-06 16:33:00,76.9,53.3,29.99,NNW,337,3.0,5.0,44,0.00,,,0.00,Wunderground v.1.15,2013-05-06 21:33:00,
2013-05-06 16:37:00,76.7,53.8,29.99,NW,313,3.0,5.0,45,0.00,,,0.00,Wunderground v.1.15,2013-05-06 21:37:00,
2013-05-06 16:42:00,76.4,53.5,29.99,West,273,2.0,4.0,45,0.00,,,0.00,Wunderground v.1.15,2013-05-06 21:42:00,
2013-05-06 16:47:00,76.6,53.1,29.99,SW,223,2.0,4.0,44,0.00,,,0.00,Wunderground v.1.15,2013-05-06 21:47:00,
2013-05-06 16:54:00,77.0,54.6,29.99,West,262,2.0,2.0,46,0.00,,,0.00,Wunderground v.1.15,2013-05-06 21:54:00,
2013-05-06 17:00:00,77.6,53.3,29.99,WSW,244,1.0,1.0,43,0.00,,,0.00,Wunderground v.1.15,2013-05-06 22:00:00,
2013-05-06 17:05:00,77.3,53.0,29.99,WNW,300,4.0,5.0,43,0.00,,,0.00,weatherlink.com 1.10,2013-05-06 22:05:00,
2013-05-06 17:10:00,77.7,54.7,29.99,WNW,294,2.0,3.0,45,0.00,,,0.00,Wunderground v.1.15,2013-05-06 22:10:00,
2013-05-06 17:16:00,78.3,53.3,29.99,NNW,336,2.0,5.0,42,0.00,,,0.00,Wunderground v.1.15,2013-05-06 22:16:00,
2013-05-06 17:21:00,78.0,53.0,29.99,North,360,3.0,3.0,42,0.00,,,0.00,Wunderground v.1.15,2013-05-06 22:21:00,
2013-05-06 17:27:00,78.0,53.0,29.99,NNW,331,2.0,5.0,42,0.00,,,0.00,Wunderground v.1.15,2013-05-06 22:27:00,
2013-05-06 17:32:00,78.1,53.1,29.99,WSW,240,2.0,2.0,42,0.00,,,0.00,Wunderground v.1.15,2013-05-06 22:32:00,
2013-05-06 17:37:00,78.6,54.9,30.00,North,355,1.0,4.0,44,0.00,,,0.00,Wunderground v.1.15,2013-05-06 22:37:00,
2013-05-06 17:43:00,78.3,53.3,30.00,WNW,302,2.0,5.0,42,0.00,,,0.00,Wunderground v.1.15,2013-05-06 22:43:00,
2013-05-06 17:49:00,77.9,52.3,30.00,WNW,292,2.0,5.0,41,0.00,,,0.00,Wunderground v.1.15,2013-05-06 22:49:00,
2013-05-06 17:55:00,77.6,54.0,30.00,WNW,296,0.0,1.0,44,0.00,,,0.00,Wunderground v.1.15,2013-05-06 22:55:00,
2013-05-06 18:00:00,77.5,52.6,30.00,WNW,301,1.0,2.0,42,0.00,,,0.00,Wunderground v.1.15,2013-05-06 23:00:00,
2013-05-06 18:05:00,77.1,52.9,30.00,WNW,301,1.0,2.0,43,0.00,,,0.00,Wunderground v.1.15,2013-05-06 23:05:00,
2013-05-06 18:11:00,76.7,53.1,30.00,WNW,301,0.0,1.0,44,0.00,,,0.00,Wunderground v.1.15,2013-05-06 23:11:00,
2013-05-06 18:16:00,76.3,52.8,29.99,WNW,301,0.0,1.0,44,0.00,,,0.00,Wunderground v.1.15,2013-05-06 23:16:00,
2013-05-06 18:22:00,76.0,53.1,29.99,WNW,301,0.0,0.0,45,0.00,,,0.00,Wunderground v.1.15,2013-05-06 23:22:00,
2013-05-06 18:28:00,75.9,53.0,29.99,WNW,301,0.0,1.0,45,0.00,,,0.00,Wunderground v.1.15,2013-05-06 23:28:00,
2013-05-06 18:34:00,75.8,52.9,29.99,WNW,301,0.0,0.0,45,0.00,,,0.00,Wunderground v.1.15,2013-05-06 23:34:00,
2013-05-06 18:40:00,75.9,53.0,29.99,WNW,301,0.0,0.0,45,0.00,,,0.00,Wunderground v.1.15,2013-05-06 23:40:00,
2013-05-06 18:45:00,75.8,53.5,29.99,WNW,301,0.0,0.0,46,0.00,,,0.00,Wunderground v.1.15,2013-05-06 23:45:00,
2013-05-06 18:50:00,75.8,53.5,29.99,WNW,301,0.0,0.0,46,0.00,,,0.00,Wunderground v.1.15,2013-05-06 23:50:00,
2013-05-06 18:56:00,75.6,53.4,29.99,WNW,301,0.0,2.0,46,0.00,,,0.00,Wunderground v.1.15,2013-05-06 23:56:00,
2013-05-06 19:02:00,75.5,54.4,29.99,WNW,301,0.0,0.0,48,0.00,,,0.00,Wunderground v.1.15,2013-05-07 00:02:00,
2013-05-06 19:08:00,75.3,54.3,29.99,WNW,301,0.0,0.0,48,0.00,,,0.00,Wunderground v.1.15,2013-05-07 00:08:00,
2013-05-06 19:14:00,75.1,54.6,30.00,WNW,301,0.0,0.0,49,0.00,,,0.00,Wunderground v.1.15,2013-05-07 00:14:00,
2013-05-06 19:20:00,74.9,54.4,29.99,WNW,301,0.0,0.0,49,0.00,,,0.00,Wunderground v.1.15,2013-05-07 00:20:00,
2013-05-06 19:25:00,74.7,54.3,30.00,WNW,301,0.0,0.0,49,0.00,,,0.00,Wunderground v.1.15,2013-05-07 00:25:00,
2013-05-06 19:30:00,74.4,55.1,30.00,WNW,301,0.0,0.0,51,0.00,,,0.00,Wunderground v.1.15,2013-05-07 00:30:00,
2013-05-06 19:35:00,73.9,55.2,30.00,WNW,301,0.0,0.0,52,0.00,,,0.00,Wunderground v.1.15,2013-05-07 00:35:00,
2013-05-06 19:41:00,73.5,53.7,30.00,WNW,301,0.0,0.0,50,0.00,,,0.00,Wunderground v.1.15,2013-05-07 00:41:00,
2013-05-06 19:46:00,73.1,53.9,30.00,WNW,301,0.0,0.0,51,0.00,,,0.00,Wunderground v.1.15,2013-05-07 00:46:00,
2013-05-06 19:52:00,72.7,54.0,30.00,WNW,301,0.0,0.0,52,0.00,,,0.00,weatherlink.com 1.10,2013-05-07 00:52:00,
2013-05-06 19:57:00,72.3,53.7,30.00,WNW,301,0.0,0.0,52,0.00,,,0.00,Wunderground v.1.15,2013-05-07 00:57:00,
2013-05-06 20:03:00,71.9,53.8,30.00,WNW,301,0.0,0.0,53,0.00,,,0.00,Wunderground v.1.15,2013-05-07 01:03:00,
2013-05-06 20:09:00,71.5,54.0,30.00,WNW,301,0.0,0.0,54,0.00,,,0.00,Wunderground v.1.15,2013-05-07 01:09:00,
2013-05-06 20:15:00,71.1,54.1,30.00,WNW,301,0.0,0.0,55,0.00,,,0.00,Wunderground v.1.15,2013-05-07 01:15:00,
2013-05-06 20:21:00,70.7,54.0,30.00,WNW,301,0.0,0.0,56,0.00,,,0.00,weatherlink.com 1.10,2013-05-07 01:21:00,
2013-05-06 20:27:00,70.3,54.3,30.00,WNW,301,0.0,0.0,57,0.00,,,0.00,Wunderground v.1.15,2013-05-07 01:27:00,
2013-05-06 20:33:00,69.9,54.0,30.00,WNW,301,0.0,0.0,57,0.00,,,0.00,Wunderground v.1.15,2013-05-07 01:33:00,
2013-05-06 20:39:00,69.6,54.2,30.00,WNW,301,0.0,0.0,58,0.00,,,0.00,Wunderground v.1.15,2013-05-07 01:39:00,
2013-05-06 20:44:00,69.3,53.9,30.00,WNW,301,0.0,0.0,58,0.00,,,0.00,Wunderground v.1.15,2013-05-07 01:44:00,
2013-05-06 20:49:00,69.0,53.6,30.00,WNW,301,0.0,0.0,58,0.00,,,0.00,Wunderground v.1.15,2013-05-07 01:49:00,
2013-05-06 20:55:00,68.7,53.3,30.00,WNW,301,0.0,0.0,58,0.00,,,0.00,Wunderground v.1.15,2013-05-07 01:55:00,
2013-05-06 21:00:00,68.4,53.5,30.00,WNW,301,0.0,0.0,59,0.00,,,0.00,Wunderground v.1.15,2013-05-07 02:00:00,
2013-05-06 21:05:00,68.1,53.2,30.00,WNW,301,0.0,0.0,59,0.00,,,0.00,Wunderground v.1.15,2013-05-07 02:05:00,
2013-05-06 21:10:00,67.9,53.5,30.00,WNW,301,0.0,0.0,60,0.00,,,0.00,Wunderground v.1.15,2013-05-07 02:10:00,
2013-05-06 21:16:00,67.7,53.3,30.01,WNW,301,0.0,0.0,60,0.00,,,0.00,Wunderground v.1.15,2013-05-07 02:16:00,
2013-05-06 21:21:00,67.5,53.0,30.01,WNW,301,0.0,0.0,60,0.00,,,0.00,weatherlink.com 1.10,2013-05-07 02:21:00,
2013-05-06 21:26:00,67.4,53.5,30.01,WNW,301,0.0,0.0,61,0.00,,,0.00,Wunderground v.1.15,2013-05-07 02:26:00,
2013-05-06 21:31:00,67.2,53.7,30.01,WNW,301,0.0,0.0,62,0.00,,,0.00,Wunderground v.1.15,2013-05-07 02:31:00,
2013-05-06 21:37:00,67.0,53.0,30.01,WNW,301,0.0,0.0,62,0.00,,,0.00,weatherlink.com 1.10,2013-05-07 02:37:00,
2013-05-06 21:43:00,66.7,54.1,30.01,WNW,301,0.0,0.0,64,0.00,,,0.00,Wunderground v.1.15,2013-05-07 02:43:00,
2013-05-06 21:49:00,66.3,53.8,30.01,WNW,301,0.0,0.0,64,0.00,,,0.00,Wunderground v.1.15,2013-05-07 02:49:00,
2013-05-06 21:55:00,66.0,53.9,30.01,WNW,301,0.0,0.0,65,0.00,,,0.00,Wunderground v.1.15,2013-05-07 02:55:00,
2013-05-06 22:00:00,65.6,53.9,30.02,WNW,301,0.0,0.0,66,0.00,,,0.00,Wunderground v.1.15,2013-05-07 03:00:00,
2013-05-06 22:06:00,65.2,54.0,30.02,West,281,0.0,1.0,67,0.00,,,0.00,Wunderground v.1.15,2013-05-07 03:06:00,
2013-05-06 22:12:00,65.0,54.2,30.02,ESE,107,0.0,1.0,68,0.00,,,0.00,Wunderground v.1.15,2013-05-07 03:12:00,
2013-05-06 22:17:00,64.9,54.1,30.02,ESE,107,0.0,1.0,68,0.00,,,0.00,Wunderground v.1.15,2013-05-07 03:17:00,
2013-05-06 22:22:00,64.8,54.0,30.02,ESE,107,0.0,2.0,67,0.00,,,0.00,weatherlink.com 1.10,2013-05-07 03:22:00,
2013-05-06 22:28:00,64.8,53.2,30.02,ENE,78,0.0,2.0,66,0.00,,,0.00,Wunderground v.1.15,2013-05-07 03:28:00,
2013-05-06 22:34:00,64.8,53.6,30.02,ENE,78,0.0,1.0,67,0.00,,,0.00,Wunderground v.1.15,2013-05-07 03:34:00,
2013-05-06 22:40:00,64.8,53.6,30.02,ENE,78,0.0,0.0,67,0.00,,,0.00,Wunderground v.1.15,2013-05-07 03:40:00,
2013-05-06 22:45:00,64.7,53.5,30.02,ENE,78,0.0,1.0,67,0.00,,,0.00,Wunderground v.1.15,2013-05-07 03:45:00,
2013-05-06 22:51:00,64.5,52.9,30.02,ENE,78,1.0,1.0,66,0.00,,,0.00,Wunderground v.1.15,2013-05-07 03:51:00,
2013-05-06 22:56:00,64.4,52.4,30.02,ENE,78,0.0,2.0,65,0.00,,,0.00,Wunderground v.1.15,2013-05-07 03:56:00,
2013-05-06 23:02:00,64.3,52.3,30.02,East,79,0.0,1.0,65,0.00,,,0.00,Wunderground v.1.15,2013-05-07 04:02:00,
2013-05-06 23:04:00,64.3,52.3,30.02,East,79,1.0,1.0,65,0.00,,,0.00,Wunderground v.1.15,2013-05-07 04:04:00,
2013-05-06 23:06:00,64.4,52.0,30.02,East,79,0.0,2.0,64,0.00,,,0.00,weatherlink.com 1.10,2013-05-07 04:06:00,
2013-05-06 23:10:00,64.8,52.3,30.02,East,79,0.0,0.0,64,0.00,,,0.00,Wunderground v.1.15,2013-05-07 04:10:00,
2013-05-06 23:11:00,64.9,52.4,30.02,East,79,0.0,0.0,64,0.00,,,0.00,Wunderground v.1.15,2013-05-07 04:11:00,
2013-05-06 23:16:00,65.4,52.9,30.02,East,79,0.0,0.0,64,0.00,,,0.00,Wunderground v.1.15,2013-05-07 04:16:00,
2013-05-06 23:21:00,65.6,53.1,30.02,East,79,0.0,0.0,64,0.00,,,0.00,Wunderground v.1.15,2013-05-07 04:21:00,
2013-05-06 23:27:00,65.6,52.7,30.02,East,79,0.0,0.0,63,0.00,,,0.00,Wunderground v.1.15,2013-05-07 04:27:00,
2013-05-06 23:33:00,65.5,53.0,30.02,East,79,0.0,1.0,64,0.00,,,0.00,Wunderground v.1.15,2013-05-07 04:33:00,
2013-05-06 23:38:00,65.3,52.8,30.02,East,79,0.0,2.0,64,0.00,,,0.00,Wunderground v.1.15,2013-05-07 04:38:00,
2013-05-06 23:44:00,65.0,52.1,30.01,East,79,0.0,1.0,63,0.00,,,0.00,Wunderground v.1.15,2013-05-07 04:44:00,
2013-05-06 23:50:00,64.7,51.8,30.02,East,79,1.0,1.0,63,0.00,,,0.00,Wunderground v.1.15,2013-05-07 04:50:00,
2013-05-06 23:55:00,64.4,51.5,30.02,East,80,1.0,2.0,63,0.00,,,0.00,Wunderground v.1.15,2013-05-07 04:55:00,